Location: Unspecified
(0.0000°N, 0.0000°E)
Time: 15:40:51
(UTC+02:00)

ASC 2 Rocket - Visible Passes

Search period start: 27 April 2015 00:00
Search period end: 07 May 2015 00:00
Orbit: 556 x 2347 km, 24.0° (Epoch: 26 April)

Date Brightness Start Highest point End Pass type
(mag) Time Alt. Az. Time Alt. Az. Time Alt. Az.
27 Apr 7.0 00:28:18 10° NW 00:33:42 26° NW 00:33:42 26° NW visible
27 Apr 7.0 21:16:35 10° NW 21:26:22 25° N 21:36:40 12° ENE visible
27 Apr 6.5 23:20:46 10° NW 23:31:29 39° N 23:31:29 39° N visible
28 Apr 7.6 01:25:43 10° WNW 01:26:18 12° WNW 01:26:18 12° WNW visible
28 Apr 6.2 05:52:21 13° S 05:52:21 13° S 05:53:31 10° SSE visible
28 Apr 7.1 20:09:55 10° NW 20:17:56 21° N 20:27:34 10° NE visible
28 Apr 6.6 22:13:42 10° NW 22:25:17 34° NNE 22:29:16 30° NE visible
29 Apr 6.9 00:17:53 10° NW 00:24:05 31° NW 00:24:05 31° NW visible
29 Apr 6.8 21:07:06 10° NW 21:16:51 27° NNE 21:27:03 13° ENE visible
29 Apr 6.3 23:10:33 10° NW 23:21:52 47° N 23:21:52 47° N visible
30 Apr 7.5 01:15:23 10° WNW 01:16:42 14° WNW 01:16:42 14° WNW visible
30 Apr 6.4 05:43:27 12° S 05:43:27 12° S 05:44:14 10° SSE visible
30 Apr 6.4 22:03:46 10° NW 22:15:27 39° NNE 22:19:40 34° NE visible
01 May 6.7 00:07:35 10° WNW 00:14:29 36° NW 00:14:29 36° NW visible
01 May 6.7 20:57:30 10° NW 21:07:14 30° NNE 21:17:28 14° ENE visible
01 May 6.0 23:00:26 10° NW 23:12:18 56° N 23:12:18 56° N visible
02 May 7.5 01:05:14 10° WNW 01:07:07 16° WNW 01:07:07 16° WNW visible
02 May 6.6 05:34:26 11° S 05:34:26 11° S 05:35:09 10° SSE visible
02 May 6.2 21:53:53 10° NW 22:05:29 45° NNE 22:10:08 37° ENE visible
02 May 6.5 23:57:29 10° WNW 00:04:57 41° WNW 00:04:57 41° WNW visible
03 May 6.4 06:27:18 10° SSW 06:28:46 11° S 06:30:34 10° S visible
03 May 6.4 20:47:53 10° NW 20:57:31 34° NNE 21:07:58 14° ENE visible
03 May 5.8 22:50:27 10° NW 23:02:48 68° N 23:02:48 68° N visible
04 May 7.4 00:55:19 10° WNW 00:57:38 17° WNW 00:57:38 17° WNW visible
04 May 6.7 05:25:19 12° SSE 05:25:19 12° SSE 05:26:21 10° SSE visible
04 May 6.3 07:25:31 10° SSW 07:26:57 11° S 07:28:17 10° SSE visible
04 May 6.0 21:44:04 10° NW 21:55:25 53° NNE 22:00:41 39° ENE visible
04 May 6.4 23:47:36 10° WNW 23:55:30 45° WNW 23:55:30 45° WNW visible
05 May 6.5 06:18:08 12° SSW 06:19:54 13° S 06:23:16 10° SSE visible
05 May 6.2 20:38:16 10° NW 20:47:41 39° NNE 20:58:34 14° E visible
05 May 5.6 22:40:39 10° WNW 22:53:13 81° NNE 22:53:24 81° NE visible
06 May 7.3 00:45:39 10° W 00:48:13 18° W 00:48:13 18° W visible
06 May 6.7 05:16:08 13° SSE 05:16:08 13° SSE 05:17:50 10° SSE visible
06 May 6.2 07:13:47 10° SSW 07:18:08 15° S 07:21:49 10° SE visible
06 May 5.7 21:34:23 10° NW 21:45:18 63° NNE 21:51:19 39° E visible
